Regional Weather Roundup
Issued by NWS

Home | Current Version | Previous Version | Graphics & Text | Print | Product List | Glossary Off
Versions: 1 2 3 4 5 6 7 8 9 10 11 12 13 14 15 16 17 18 19 20 21 22 23 24 25 26 27 28 29 30 31 32 33 34 35 36 37 38 39 40 41 42 43 44 45 46 47 48 49 50

321
ASUS43 KTOP 290808
RWRKS

WEATHER ROUNDUP FOR KANSAS
NATIONAL WEATHER SERVICE GOODLAND KS
300 AM CDT WED MAR 29 2017

NOTE:  "FAIR" INDICATES FEW OR NO CLOUDS BELOW 12,000 FEET WITH NO
SIGNIFICANT WEATHER AND/OR OBSTRUCTIONS TO VISIBILITY.

KSZ001>006-013>018-027>032-041>047-290900-
NORTHWEST KANSAS

CITY           SKY/WX    TMP DP  RH WIND       PRES   REMARKS
GOODLAND       CLOUDY    39  38  96 NE16G24   29.99S FOG     WCI  30
HAYS             N/A     44  44 100 NE20      29.88F FOG
HILL CITY      LGT RAIN  43  43 100 N18G25    29.95F FOG
RUSSELL        CLOUDY    45  44  97 NE22G29   29.86F FOG
$$

KSZ061>065-074>080-084>089-290900-
SOUTHWEST KANSAS

CITY           SKY/WX    TMP DP  RH WIND       PRES   REMARKS
DODGE CITY     LGT RAIN  44  44 100 N17G26    29.86R FOG
ELKHART          N/A     40  34  80 N15         N/A  WCI  32
GARDEN CITY    LGT RAIN  43  41  93 N21       29.90R FOG
GREAT BEND     CLOUDY    47  46  97 NE18      29.82
LIBERAL        CLOUDY    45  41  87 N17       29.86F
PRATT          DRIZZLE   46  45  97 NE15      29.76F
$$

KSZ066>073-081>083-090>101-290900-
SOUTHEAST KANSAS

CITY           SKY/WX    TMP DP  RH WIND       PRES   REMARKS
CHANUTE        RAIN      57  53  86 E12       29.75F
COFFEYVILLE    RAIN      57  56  96 S7        29.76R FOG
MEDICINE LODGE   N/A     50  48  93 NE23G35   29.69F
NEWTON         LGT RAIN  49  48  97 NE22G35   29.76F
PARSONS        LGT RAIN  58  56  93 SE5       29.78R FOG
WICHITA INTL   LGT RAIN  51  51 100 N22G32    29.75F
WICHITA JABRA  LGT RAIN  50  49  96 NE28G35   29.74F
WICHITA MCCONL LGT RAIN  50  48  92 NE30G38   29.71F
WINFIELD       CLOUDY    52  50  93 NE20G29   29.71F
$$

KSZ007>012-019>026-033>040-048>060-102>105-290900-
NORTHEAST KANSAS

CITY           SKY/WX    TMP DP  RH WIND       PRES   REMARKS
CONCORDIA      RAIN      46  46 100 NE16G23   29.91F FOG
EMPORIA        RAIN      50  50 100 NE16      29.84F FOG
LAWRENCE       RAIN      52  51  97 NE12G25   29.89F FOG
MANHATTAN      HVY RAIN  51  50  96 NE20G31   29.89F FOG
MARYSVILLE     HVY RAIN  48  46  93 E14       29.96F
OLATHE IND     TSTM      51  49  92 E14G26    29.87R FOG
OLATHE EXE     TSTM      51  50  96 E22G30    29.84F FOG
SALINA         RAIN      51  49  92 E23G32    29.84F
TOPEKA BILLARD TSTM      51  51 100 NE16G28   29.89F FOG
TOPEKA FORBES  TSTM      52  50  93 NE15G24   29.86F FOG
$$




USA.gov is the U.S. government's official web portal to all federal, state and local government web resources and services.